Regional Weather Roundup
Issued by NWS

Home | Current Version | Previous Version | Graphics & Text | Print | Product List | Glossary On
Versions: 1 2 3 4 5 6 7 8 9 10 11 12 13 14 15 16 17 18 19 20 21 22 23 24 25 26 27 28 29 30 31 32 33 34 35 36 37 38 39 40 41 42 43 44 45 46 47 48 49 50
000
ASUS45 KCYS 280810
RWRWY

WYOMING REGIONAL WEATHER ROUNDUP
NATIONAL WEATHER SERVICE CHEYENNE WY
200 AM MDT SAT MAR 28 2015

NOTE:  "FAIR" INDICATES FEW OR NO CLOUDS BELOW 12,000 FEET
WITH NO SIGNIFICANT WEATHER AND/OR OBSTRUCTIONS TO VISIBILITY.

WYZ001-280900-
YELLOWSTONE NATIONAL PARK

CITY           SKY/WX    TMP DP  RH WIND       PRES   REMARKS
LK YELLOWSTONE   N/A     27  24  89 NW5       30.21F WCI  22
W YELLOWSTONE  NOT AVBL

$$
WYZ002>013-054>058-071-098>099-280900-
NORTHERN WYOMING

CITY           SKY/WX    TMP DP  RH WIND       PRES   REMARKS
JACKSON        FAIR      30  28  93 N8        30.18F WCI  23
CODY           FAIR      57  28  33 SW9       30.02S
GREYBULL       FAIR      48  30  49 SE7       29.99F
WORLAND        FAIR      45  31  58 SE7       30.00F
SHERIDAN       FAIR      45  30  55 CALM      29.94F
BUFFALO        FAIR      56  28  34 W13       29.99F
GILLETTE       FAIR      46  30  53 SW3       29.96F
HULETT         FAIR      37  32  81 S8        29.97S WCI  31
NEWCASTLE      FAIR      37  28  70 CALM      29.99S

$$
WYZ014>020-022>026-101>103-280900-
CENTRAL WYOMING

CITY           SKY/WX    TMP DP  RH WIND       PRES   REMARKS
BIG PINEY      FAIR      28  21  75 NE7       30.22F WCI  21
PINEDALE       FAIR      30  28  93 NW5       30.24F WCI  25
DUBOIS         FAIR      36  28  75 W8        30.16F WCI  29
LANDER         FAIR      50  22  33 VRB3      30.09S
RIVERTON       FAIR      49  28  44 W15       30.09F
CASPER         FAIR      44  26  49 W9        30.06F
DOUGLAS        FAIR      39  26  59 N6        30.04F WCI  35

$$
WYZ021-027>030-104>119-280900-
SOUTHERN WYOMING

CITY           SKY/WX    TMP DP  RH WIND       PRES   REMARKS
EVANSTON       FAIR      43  25  49 E6        30.25S
KEMMERER       FAIR      36  30  80 N7        30.24F WCI  30
ROCK SPRINGS   FAIR      42  26  53 SW7       30.21F
DIXON          FAIR      34  26  75 E3        30.24F
RAWLINS        FAIR      44  19  36 W10       30.17F
SARATOGA       FAIR      36  25  64 SE5       30.20F WCI  32
LARAMIE        FAIR      33  25  72 S9        30.16F WCI  25
CHEYENNE       FAIR      45  25  45 W13       30.10F
TORRINGTON     FAIR      40  26  57 W5        30.00F
PINE BLUFFS    FAIR      36  28  75 W5        30.07F WCI  32

$$


USA.gov is the U.S. government's official web portal to all federal, state and local government web resources and services.